Tracking 20712 objects as of 29-May-2020
HD Live streaming from Space Station
objects crossing your sky now

IRIDIUM 33 DEB

Track IRIDIUM 33 DEB now!
10-day predictions


NORAD ID: 34511
Int'l Code: 1997-051HC
Perigee: 715.7 km
Apogee: 755.3 km
Inclination: 86.4 °
Period: 99.4 minutes
Semi major axis: 7106 km
RCS: 0.037 m2 (small)
Launch date: September 14, 1997
Source: United States (US)
Launch site: TYURATAM MISSILE AND SPACE COMPLEX (TTMTR)

Note: This is SATELLITE DEBRIS
aabbcc
Your satellite tracking list
Your tracking list is empty




NASA's NSSDC Master Catalog

Two Line Element Set (TLE):
1 34511U 97051HC  20149.81320847  .00001382  00000-0  35625-3 0  9993
2 34511  86.3922 184.0262 0027805 211.4783 201.7597 14.49170935591387
Source of the keplerian elements: AFSPC